Time,TemperatureF,DewpointF,PressureIn,WindDirection,WindDirectionDegrees,WindSpeedMPH,WindSpeedGustMPH,Humidity,HourlyPrecipIn,Conditions,Clouds,dailyrainin,SoftwareType,DateUTC
2013-02-03 00:00:00,9.7,7.1,30.00,NW,311,0.0,0.0,89,0.00,,,0.00,Wunderground v.1.15,2013-02-03 05:00:00,
2013-02-03 00:01:00,9.6,6.8,30.01,NW,311,0.0,0.0,88,0.00,,,0.00,Wunderground v.1.15,2013-02-03 05:01:00,
2013-02-03 00:03:00,9.4,6.8,30.01,NW,311,0.0,0.0,89,0.00,,,0.00,Wunderground v.1.15,2013-02-03 05:03:00,
2013-02-03 00:04:00,9.4,6.8,30.01,NW,311,0.0,0.0,89,0.00,,,0.00,Wunderground v.1.15,2013-02-03 05:04:00,
2013-02-03 00:09:00,9.2,6.6,30.01,NW,311,0.0,0.0,89,0.00,,,0.00,Wunderground v.1.15,2013-02-03 05:09:00,
2013-02-03 00:14:00,8.9,6.3,30.01,NW,311,0.0,0.0,89,0.00,,,0.00,Wunderground v.1.15,2013-02-03 05:14:00,
2013-02-03 00:20:00,8.8,6.2,30.01,ENE,65,0.0,0.0,89,0.00,,,0.00,Wunderground v.1.15,2013-02-03 05:20:00,
2013-02-03 00:25:00,8.8,6.5,30.01,ENE,65,0.0,0.0,90,0.00,,,0.00,Wunderground v.1.15,2013-02-03 05:25:00,
2013-02-03 00:30:00,8.5,5.9,30.01,ENE,63,0.0,0.0,89,0.00,,,0.00,Wunderground v.1.15,2013-02-03 05:30:00,
2013-02-03 00:36:00,8.4,5.8,30.00,ENE,63,0.0,0.0,89,0.00,,,0.00,Wunderground v.1.15,2013-02-03 05:36:00,
2013-02-03 00:41:00,8.1,5.8,30.00,ENE,64,0.0,0.0,90,0.00,,,0.00,Wunderground v.1.15,2013-02-03 05:41:00,
2013-02-03 00:46:00,8.0,5.7,30.00,WNW,294,0.0,0.0,90,0.00,,,0.00,Wunderground v.1.15,2013-02-03 05:46:00,
2013-02-03 00:52:00,7.7,5.4,30.00,WNW,294,0.0,0.0,90,0.00,,,0.00,Wunderground v.1.15,2013-02-03 05:52:00,
2013-02-03 00:57:00,7.4,4.8,30.00,WNW,294,0.0,0.0,89,0.00,,,0.00,Wunderground v.1.15,2013-02-03 05:57:00,
2013-02-03 01:03:00,7.1,4.5,30.00,ENE,58,0.0,0.0,89,0.00,,,0.00,Wunderground v.1.15,2013-02-03 06:03:00,
2013-02-03 01:08:00,6.9,4.3,30.00,ENE,58,0.0,0.0,89,0.00,,,0.00,Wunderground v.1.15,2013-02-03 06:08:00,
2013-02-03 01:14:00,6.7,4.1,30.00,East,79,0.0,0.0,89,0.00,,,0.00,Wunderground v.1.15,2013-02-03 06:14:00,
2013-02-03 01:20:00,6.4,3.9,29.99,East,79,0.0,0.0,89,0.00,,,0.00,Wunderground v.1.15,2013-02-03 06:20:00,
2013-02-03 01:26:00,6.1,3.6,29.99,East,79,0.0,0.0,89,0.00,,,0.00,Wunderground v.1.15,2013-02-03 06:26:00,
2013-02-03 01:31:00,6.1,3.8,29.99,NW,310,0.0,0.0,90,0.00,,,0.00,Wunderground v.1.15,2013-02-03 06:31:00,
2013-02-03 01:37:00,6.2,3.9,29.99,NW,311,0.0,0.0,90,0.00,,,0.00,Wunderground v.1.15,2013-02-03 06:37:00,
2013-02-03 01:43:00,5.8,3.3,29.99,NW,311,0.0,0.0,89,0.00,,,0.00,Wunderground v.1.15,2013-02-03 06:43:00,
2013-02-03 01:49:00,5.8,3.3,29.99,NE,49,0.0,0.0,89,0.00,,,0.00,Wunderground v.1.15,2013-02-03 06:49:00,
2013-02-03 01:54:00,5.8,3.3,29.99,NE,50,0.0,0.0,89,0.00,,,0.00,Wunderground v.1.15,2013-02-03 06:54:00,
2013-02-03 02:00:00,5.7,3.2,29.99,NE,50,0.0,0.0,89,0.00,,,0.00,Wunderground v.1.15,2013-02-03 07:00:00,
2013-02-03 02:05:00,5.8,3.5,29.99,East,91,0.0,1.0,90,0.00,,,0.00,Wunderground v.1.15,2013-02-03 07:05:00,
2013-02-03 02:10:00,5.9,3.6,29.99,East,91,0.0,0.0,90,0.00,,,0.00,Wunderground v.1.15,2013-02-03 07:10:00,
2013-02-03 02:15:00,5.8,3.3,29.99,East,91,0.0,0.0,89,0.00,,,0.00,Wunderground v.1.15,2013-02-03 07:15:00,
2013-02-03 02:20:00,5.6,3.1,29.99,East,91,0.0,0.0,89,0.00,,,0.00,Wunderground v.1.15,2013-02-03 07:20:00,
2013-02-03 02:25:00,5.7,3.2,29.99,ESE,108,0.0,1.0,89,0.00,,,0.00,Wunderground v.1.15,2013-02-03 07:25:00,
2013-02-03 02:30:00,5.7,3.2,29.98,ESE,108,0.0,0.0,89,0.00,,,0.00,Wunderground v.1.15,2013-02-03 07:30:00,
2013-02-03 02:35:00,5.7,3.4,29.98,ESE,109,0.0,0.0,90,0.00,,,0.00,Wunderground v.1.15,2013-02-03 07:35:00,
2013-02-03 02:40:00,5.7,3.2,29.98,ESE,109,0.0,0.0,89,0.00,,,0.00,Wunderground v.1.15,2013-02-03 07:40:00,
2013-02-03 02:45:00,5.7,3.4,29.98,ESE,108,0.0,0.0,90,0.00,,,0.00,Wunderground v.1.15,2013-02-03 07:45:00,
2013-02-03 02:50:00,5.7,3.4,29.98,ESE,109,0.0,0.0,90,0.00,,,0.00,Wunderground v.1.15,2013-02-03 07:50:00,
2013-02-03 02:55:00,5.6,3.1,29.98,ESE,109,0.0,0.0,89,0.00,,,0.00,Wunderground v.1.15,2013-02-03 07:55:00,
2013-02-03 03:00:00,5.5,3.0,29.97,ESE,108,0.0,0.0,89,0.00,,,0.00,Wunderground v.1.15,2013-02-03 08:00:00,
2013-02-03 03:05:00,5.4,2.9,29.97,ESE,109,0.0,0.0,89,0.00,,,0.00,Wunderground v.1.15,2013-02-03 08:05:00,
2013-02-03 03:10:00,5.6,3.3,29.97,ESE,108,0.0,0.0,90,0.00,,,0.00,Wunderground v.1.15,2013-02-03 08:10:00,
2013-02-03 03:15:00,5.6,3.3,29.97,ESE,108,0.0,0.0,90,0.00,,,0.00,Wunderground v.1.15,2013-02-03 08:15:00,
2013-02-03 03:20:00,5.7,3.4,29.97,ESE,109,0.0,0.0,90,0.00,,,0.00,Wunderground v.1.15,2013-02-03 08:20:00,
2013-02-03 03:25:00,6.6,4.5,29.97,East,79,0.0,2.0,91,0.00,,,0.00,Wunderground v.1.15,2013-02-03 08:25:00,
2013-02-03 03:31:00,7.0,4.9,29.97,East,79,0.0,0.0,91,0.00,,,0.00,Wunderground v.1.15,2013-02-03 08:31:00,
2013-02-03 03:36:00,6.9,4.6,29.96,East,79,0.0,0.0,90,0.00,,,0.00,Wunderground v.1.15,2013-02-03 08:36:00,
2013-02-03 03:41:00,6.5,3.9,29.96,East,79,0.0,0.0,89,0.00,,,0.00,Wunderground v.1.15,2013-02-03 08:41:00,
2013-02-03 03:46:00,6.1,3.6,29.96,East,79,0.0,0.0,89,0.00,,,0.00,Wunderground v.1.15,2013-02-03 08:46:00,
2013-02-03 03:51:00,5.7,3.2,29.96,East,79,0.0,0.0,89,0.00,,,0.00,Wunderground v.1.15,2013-02-03 08:51:00,
2013-02-03 03:56:00,5.6,3.1,29.96,East,79,0.0,0.0,89,0.00,,,0.00,Wunderground v.1.15,2013-02-03 08:56:00,
2013-02-03 04:01:00,5.4,2.9,29.95,East,79,0.0,0.0,89,0.00,,,0.00,Wunderground v.1.15,2013-02-03 09:01:00,
2013-02-03 04:06:00,5.2,2.7,29.95,East,79,0.0,0.0,89,0.00,,,0.00,Wunderground v.1.15,2013-02-03 09:06:00,
2013-02-03 04:11:00,5.0,2.5,29.95,East,79,0.0,0.0,89,0.00,,,0.00,Wunderground v.1.15,2013-02-03 09:11:00,
2013-02-03 04:16:00,4.7,2.2,29.95,East,79,0.0,0.0,89,0.00,,,0.00,Wunderground v.1.15,2013-02-03 09:16:00,
2013-02-03 04:21:00,4.4,1.9,29.95,East,79,0.0,0.0,89,0.00,,,0.00,Wunderground v.1.15,2013-02-03 09:21:00,
2013-02-03 04:26:00,4.2,1.7,29.95,East,79,0.0,0.0,89,0.00,,,0.00,Wunderground v.1.15,2013-02-03 09:26:00,
2013-02-03 04:31:00,4.0,1.5,29.95,East,79,0.0,0.0,89,0.00,,,0.00,Wunderground v.1.15,2013-02-03 09:31:00,
2013-02-03 04:36:00,3.8,1.3,29.95,East,79,0.0,0.0,89,0.00,,,0.00,Wunderground v.1.15,2013-02-03 09:36:00,
2013-02-03 04:41:00,3.6,1.1,29.95,East,79,0.0,0.0,89,0.00,,,0.00,Wunderground v.1.15,2013-02-03 09:41:00,
2013-02-03 04:46:00,3.3,0.8,29.95,East,79,0.0,0.0,89,0.00,,,0.00,Wunderground v.1.15,2013-02-03 09:46:00,
2013-02-03 04:51:00,3.0,0.3,29.95,East,79,0.0,0.0,88,0.00,,,0.00,Wunderground v.1.15,2013-02-03 09:51:00,
2013-02-03 04:56:00,2.7,0.2,29.95,East,79,0.0,0.0,89,0.00,,,0.00,Wunderground v.1.15,2013-02-03 09:56:00,
2013-02-03 05:01:00,2.5,0.0,29.95,East,79,0.0,0.0,89,0.00,,,0.00,Wunderground v.1.15,2013-02-03 10:01:00,
2013-02-03 05:06:00,2.4,-0.1,29.95,East,79,0.0,0.0,89,0.00,,,0.00,Wunderground v.1.15,2013-02-03 10:06:00,
2013-02-03 05:11:00,2.1,-0.6,29.95,East,79,0.0,0.0,88,0.00,,,0.00,Wunderground v.1.15,2013-02-03 10:11:00,
2013-02-03 05:16:00,2.0,-0.5,29.94,East,79,0.0,1.0,89,0.00,,,0.00,Wunderground v.1.15,2013-02-03 10:16:00,
2013-02-03 05:21:00,2.1,-0.4,29.94,ESE,112,0.0,1.0,89,0.00,,,0.00,Wunderground v.1.15,2013-02-03 10:21:00,
2013-02-03 05:26:00,1.8,-0.9,29.94,ESE,112,0.0,1.0,88,0.00,,,0.00,Wunderground v.1.15,2013-02-03 10:26:00,
2013-02-03 05:31:00,1.7,-1.0,29.94,ESE,112,0.0,1.0,88,0.00,,,0.00,Wunderground v.1.15,2013-02-03 10:31:00,
2013-02-03 05:36:00,1.5,-1.2,29.94,ESE,112,0.0,1.0,88,0.00,,,0.00,Wunderground v.1.15,2013-02-03 10:36:00,
2013-02-03 05:41:00,1.3,-1.4,29.94,ESE,113,0.0,1.0,88,0.00,,,0.00,Wunderground v.1.15,2013-02-03 10:41:00,
2013-02-03 05:46:00,1.1,-1.6,29.94,ESE,113,0.0,1.0,88,0.00,,,0.00,Wunderground v.1.15,2013-02-03 10:46:00,
2013-02-03 05:51:00,0.9,-1.8,29.94,ESE,112,0.0,1.0,88,0.00,,,0.00,Wunderground v.1.15,2013-02-03 10:51:00,
2013-02-03 05:56:00,0.9,-1.8,29.94,East,91,0.0,1.0,88,0.00,,,0.00,Wunderground v.1.15,2013-02-03 10:56:00,
2013-02-03 06:01:00,0.7,-2.0,29.93,East,92,0.0,0.0,88,0.00,,,0.00,Wunderground v.1.15,2013-02-03 11:01:00,
2013-02-03 06:06:00,0.5,-2.2,29.93,East,92,0.0,0.0,88,0.00,,,0.00,Wunderground v.1.15,2013-02-03 11:06:00,
2013-02-03 06:11:00,0.6,-2.1,29.93,East,91,0.0,1.0,88,0.00,,,0.00,Wunderground v.1.15,2013-02-03 11:11:00,
2013-02-03 06:16:00,0.6,-2.1,29.93,East,92,0.0,1.0,88,0.00,,,0.00,Wunderground v.1.15,2013-02-03 11:16:00,
2013-02-03 06:21:00,0.2,-2.8,29.93,East,92,0.0,0.0,87,0.00,,,0.00,Wunderground v.1.15,2013-02-03 11:21:00,
2013-02-03 06:26:00,0.0,-2.9,29.93,East,92,0.0,0.0,87,0.00,,,0.00,Wunderground v.1.15,2013-02-03 11:26:00,
2013-02-03 06:31:00,-0.2,-3.1,29.93,East,92,0.0,0.0,87,0.00,,,0.00,Wunderground v.1.15,2013-02-03 11:31:00,
2013-02-03 06:36:00,-0.4,-3.3,29.93,East,92,0.0,1.0,87,0.00,,,0.00,Wunderground v.1.15,2013-02-03 11:36:00,
2013-02-03 06:42:00,-0.4,-3.1,29.93,East,92,0.0,1.0,88,0.00,,,0.00,Wunderground v.1.15,2013-02-03 11:42:00,
2013-02-03 06:47:00,-0.4,-3.1,29.93,East,91,0.0,1.0,88,0.00,,,0.00,Wunderground v.1.15,2013-02-03 11:47:00,
2013-02-03 06:52:00,-0.6,-3.5,29.93,East,91,0.0,0.0,87,0.00,,,0.00,Wunderground v.1.15,2013-02-03 11:52:00,
2013-02-03 06:57:00,-0.7,-3.4,29.93,East,91,0.0,0.0,88,0.00,,,0.00,Wunderground v.1.15,2013-02-03 11:57:00,
2013-02-03 07:02:00,-0.9,-3.8,29.93,East,91,0.0,0.0,87,0.00,,,0.00,Wunderground v.1.15,2013-02-03 12:02:00,
2013-02-03 07:07:00,-1.1,-4.0,29.93,East,91,0.0,1.0,87,0.00,,,0.00,Wunderground v.1.15,2013-02-03 12:07:00,
2013-02-03 07:12:00,-1.0,-3.9,29.93,East,91,0.0,0.0,87,0.00,,,0.00,Wunderground v.1.15,2013-02-03 12:12:00,
2013-02-03 07:17:00,-1.2,-4.1,29.94,East,92,0.0,0.0,87,0.00,,,0.00,Wunderground v.1.15,2013-02-03 12:17:00,
2013-02-03 07:22:00,-1.1,-3.8,29.93,East,91,0.0,1.0,88,0.00,,,0.00,Wunderground v.1.15,2013-02-03 12:22:00,
2013-02-03 07:27:00,-0.7,-3.4,29.93,East,92,0.0,1.0,88,0.00,,,0.00,Wunderground v.1.15,2013-02-03 12:27:00,
2013-02-03 07:32:00,-0.1,-2.8,29.93,East,91,0.0,0.0,88,0.00,,,0.00,Wunderground v.1.15,2013-02-03 12:32:00,
2013-02-03 07:37:00,0.6,-2.4,29.93,East,91,0.0,1.0,87,0.00,,,0.00,Wunderground v.1.15,2013-02-03 12:37:00,
2013-02-03 07:42:00,1.4,-1.6,29.93,East,90,0.0,0.0,87,0.00,,,0.00,Wunderground v.1.15,2013-02-03 12:42:00,
2013-02-03 07:47:00,2.0,-1.2,29.93,East,91,0.0,0.0,86,0.00,,,0.00,Wunderground v.1.15,2013-02-03 12:47:00,
2013-02-03 07:52:00,2.7,-0.5,29.93,East,92,0.0,0.0,86,0.00,,,0.00,Wunderground v.1.15,2013-02-03 12:52:00,
2013-02-03 07:57:00,3.5,0.3,29.93,East,91,0.0,0.0,86,0.00,,,0.00,Wunderground v.1.15,2013-02-03 12:57:00,
2013-02-03 08:02:00,4.5,1.2,29.93,East,91,0.0,0.0,86,0.00,,,0.00,Wunderground v.1.15,2013-02-03 13:02:00,
2013-02-03 08:07:00,5.4,2.1,29.93,ENE,57,1.0,2.0,86,0.00,,,0.00,Wunderground v.1.15,2013-02-03 13:07:00,
2013-02-03 08:12:00,8.8,6.5,29.93,ENE,59,0.0,3.0,90,0.00,,,0.00,Wunderground v.1.15,2013-02-03 13:12:00,
2013-02-03 08:17:00,11.1,7.7,29.93,NE,51,0.0,7.0,86,0.00,,,0.00,Wunderground v.1.15,2013-02-03 13:17:00,
2013-02-03 08:22:00,12.1,7.4,29.93,SE,133,4.0,5.0,81,0.00,,,0.00,Wunderground v.1.15,2013-02-03 13:22:00,
2013-02-03 08:27:00,11.7,6.4,29.93,SE,127,0.0,5.0,79,0.00,,,0.00,Wunderground v.1.15,2013-02-03 13:27:00,
2013-02-03 08:32:00,12.0,6.7,29.93,SE,145,0.0,1.0,79,0.00,,,0.00,Wunderground v.1.15,2013-02-03 13:32:00,
2013-02-03 08:37:00,12.9,7.6,29.93,SE,139,0.0,1.0,79,0.00,,,0.00,Wunderground v.1.15,2013-02-03 13:37:00,
2013-02-03 08:42:00,13.5,7.9,29.93,SE,140,0.0,0.0,78,0.00,,,0.00,Wunderground v.1.15,2013-02-03 13:42:00,
2013-02-03 08:47:00,14.0,8.4,29.93,SE,140,0.0,1.0,78,0.00,,,0.00,Wunderground v.1.15,2013-02-03 13:47:00,
2013-02-03 08:52:00,15.2,9.6,29.93,South,169,0.0,0.0,78,0.00,,,0.00,Wunderground v.1.15,2013-02-03 13:52:00,
2013-02-03 08:57:00,15.0,8.5,29.93,West,271,0.0,0.0,75,0.00,,,0.00,Wunderground v.1.15,2013-02-03 13:57:00,
2013-02-03 09:02:00,15.1,8.3,29.93,WSW,257,1.0,1.0,74,0.00,,,0.00,Wunderground v.1.15,2013-02-03 14:02:00,
2013-02-03 09:07:00,15.1,8.9,29.93,SW,229,0.0,2.0,76,0.00,,,0.00,Wunderground v.1.15,2013-02-03 14:07:00,
2013-02-03 09:12:00,15.1,8.6,29.92,NNW,342,0.0,5.0,75,0.00,,,0.00,Wunderground v.1.15,2013-02-03 14:12:00,
2013-02-03 09:17:00,15.6,9.1,29.92,WNW,299,2.0,5.0,75,0.00,,,0.00,Wunderground v.1.15,2013-02-03 14:17:00,
2013-02-03 09:22:00,16.2,9.4,29.92,NW,312,0.0,6.0,74,0.00,,,0.00,Wunderground v.1.15,2013-02-03 14:22:00,
2013-02-03 09:27:00,16.4,8.9,29.92,North,8,3.0,6.0,72,0.00,,,0.00,Wunderground v.1.15,2013-02-03 14:27:00,
2013-02-03 09:32:00,16.7,9.2,29.92,WSW,253,2.0,4.0,72,0.00,,,0.00,Wunderground v.1.15,2013-02-03 14:32:00,
2013-02-03 09:37:00,17.0,9.5,29.92,SW,224,1.0,4.0,72,0.00,,,0.00,Wunderground v.1.15,2013-02-03 14:37:00,
2013-02-03 09:42:00,17.5,10.0,29.92,West,280,1.0,3.0,72,0.00,,,0.00,Wunderground v.1.15,2013-02-03 14:42:00,
2013-02-03 09:47:00,18.4,10.6,29.92,NW,307,2.0,3.0,71,0.00,,,0.00,Wunderground v.1.15,2013-02-03 14:47:00,
2013-02-03 09:52:00,18.3,10.5,29.92,NW,314,0.0,2.0,71,0.00,,,0.00,Wunderground v.1.15,2013-02-03 14:52:00,
2013-02-03 09:57:00,19.0,10.2,29.91,NNW,338,4.0,4.0,68,0.00,,,0.00,Wunderground v.1.15,2013-02-03 14:57:00,
2013-02-03 10:02:00,18.5,9.7,29.92,SSE,159,5.0,8.0,68,0.00,,,0.00,Wunderground v.1.15,2013-02-03 15:02:00,
2013-02-03 10:08:00,17.9,9.4,29.91,SSE,167,1.0,9.0,69,0.00,,,0.00,Wunderground v.1.15,2013-02-03 15:08:00,
2013-02-03 10:13:00,17.5,9.4,29.91,East,98,7.0,9.0,70,0.00,,,0.00,Wunderground v.1.15,2013-02-03 15:13:00,
2013-02-03 10:18:00,17.1,9.0,29.91,SSE,148,6.0,13.0,70,0.00,,,0.00,Wunderground v.1.15,2013-02-03 15:18:00,
2013-02-03 10:23:00,17.5,9.7,29.91,SSE,160,2.0,9.0,71,0.00,,,0.00,Wunderground v.1.15,2013-02-03 15:23:00,
2013-02-03 10:28:00,17.6,9.8,29.91,SSE,160,8.0,10.0,71,0.00,,,0.00,Wunderground v.1.15,2013-02-03 15:28:00,
2013-02-03 10:33:00,17.5,9.7,29.91,SE,128,5.0,9.0,71,0.00,,,0.00,Wunderground v.1.15,2013-02-03 15:33:00,
2013-02-03 10:38:00,17.6,9.5,29.91,SE,139,4.0,9.0,70,0.00,,,0.00,Wunderground v.1.15,2013-02-03 15:38:00,
2013-02-03 10:43:00,18.0,9.9,29.91,SE,132,10.0,10.0,70,0.00,,,0.00,Wunderground v.1.15,2013-02-03 15:43:00,
2013-02-03 10:48:00,17.7,9.2,29.90,East,91,5.0,12.0,69,0.00,,,0.00,Wunderground v.1.15,2013-02-03 15:48:00,
2013-02-03 10:54:00,17.8,9.7,29.90,SE,125,11.0,11.0,70,0.00,,,0.00,Wunderground v.1.15,2013-02-03 15:54:00,
2013-02-03 10:59:00,17.1,9.3,29.90,SE,128,8.0,8.0,71,0.00,,,0.00,Wunderground v.1.15,2013-02-03 15:59:00,
2013-02-03 11:04:00,17.0,8.9,29.89,ESE,106,7.0,9.0,70,0.00,,,0.00,Wunderground v.1.15,2013-02-03 16:04:00,
2013-02-03 11:09:00,17.4,9.3,29.89,SSE,148,6.0,6.0,70,0.00,,,0.00,Wunderground v.1.15,2013-02-03 16:09:00,
2013-02-03 11:14:00,17.7,9.9,29.89,SSE,152,8.0,9.0,71,0.00,,,0.00,Wunderground v.1.15,2013-02-03 16:14:00,
2013-02-03 11:19:00,18.1,9.6,29.88,ESE,102,7.0,9.0,69,0.00,,,0.00,Wunderground v.1.15,2013-02-03 16:19:00,
2013-02-03 11:24:00,18.5,10.0,29.88,SE,139,3.0,9.0,69,0.00,,,0.00,Wunderground v.1.15,2013-02-03 16:24:00,
2013-02-03 11:29:00,18.9,9.7,29.88,SE,143,4.0,7.0,67,0.00,,,0.00,Wunderground v.1.15,2013-02-03 16:29:00,
2013-02-03 11:34:00,19.4,9.5,29.87,East,81,2.0,9.0,65,0.00,,,0.00,Wunderground v.1.15,2013-02-03 16:34:00,
2013-02-03 11:39:00,19.6,9.7,29.87,SE,144,3.0,5.0,65,0.00,,,0.00,Wunderground v.1.15,2013-02-03 16:39:00,
2013-02-03 11:44:00,19.5,9.3,29.86,SSE,152,2.0,10.0,64,0.00,,,0.00,Wunderground v.1.15,2013-02-03 16:44:00,
2013-02-03 11:49:00,19.6,9.4,29.86,SE,143,5.0,7.0,64,0.00,,,0.00,Wunderground v.1.15,2013-02-03 16:49:00,
2013-02-03 11:54:00,20.4,10.1,29.85,SE,145,5.0,7.0,64,0.00,,,0.00,Wunderground v.1.15,2013-02-03 16:54:00,
2013-02-03 11:59:00,20.5,9.5,29.85,East,81,7.0,9.0,62,0.00,,,0.00,Wunderground v.1.15,2013-02-03 16:59:00,
2013-02-03 12:04:00,20.2,9.2,29.85,SE,137,6.0,8.0,62,0.00,,,0.00,Wunderground v.1.15,2013-02-03 17:04:00,
2013-02-03 12:09:00,20.2,9.2,29.85,South,172,9.0,9.0,62,0.00,,,0.00,Wunderground v.1.15,2013-02-03 17:09:00,
2013-02-03 12:14:00,20.8,9.8,29.84,SSE,148,1.0,9.0,62,0.00,,,0.00,Wunderground v.1.15,2013-02-03 17:14:00,
2013-02-03 12:19:00,21.2,9.1,29.84,SE,126,1.0,3.0,59,0.00,,,0.00,Wunderground v.1.15,2013-02-03 17:19:00,
2013-02-03 12:24:00,20.7,8.2,29.84,South,191,5.0,11.0,58,0.00,,,0.00,Wunderground v.1.15,2013-02-03 17:24:00,
2013-02-03 12:29:00,20.6,8.5,29.84,ENE,77,0.0,5.0,59,0.00,,,0.00,Wunderground v.1.15,2013-02-03 17:29:00,
2013-02-03 12:34:00,20.6,9.3,29.83,East,84,2.0,5.0,61,0.00,,,0.00,Wunderground v.1.15,2013-02-03 17:34:00,
2013-02-03 12:39:00,20.9,9.2,29.83,ESE,115,3.0,6.0,60,0.00,,,0.00,Wunderground v.1.15,2013-02-03 17:39:00,
2013-02-03 12:44:00,21.3,9.2,29.83,East,84,2.0,6.0,59,0.00,,,0.00,Wunderground v.1.15,2013-02-03 17:44:00,
2013-02-03 12:49:00,22.1,9.9,29.82,East,83,2.0,2.0,59,0.00,,,0.00,Wunderground v.1.15,2013-02-03 17:49:00,
2013-02-03 12:54:00,22.5,9.1,29.82,SE,145,4.0,9.0,56,0.00,,,0.00,Wunderground v.1.15,2013-02-03 17:54:00,
2013-02-03 12:59:00,22.9,10.3,29.82,SSE,155,2.0,3.0,58,0.00,,,0.00,Wunderground v.1.15,2013-02-03 17:59:00,
2013-02-03 13:04:00,22.6,9.2,29.81,South,187,0.0,7.0,56,0.00,,,0.00,Wunderground v.1.15,2013-02-03 18:04:00,
2013-02-03 13:09:00,22.5,9.9,29.81,South,187,4.0,4.0,58,0.00,,,0.00,Wunderground v.1.15,2013-02-03 18:09:00,
2013-02-03 13:15:00,23.1,10.1,29.81,SE,129,1.0,7.0,57,0.00,,,0.00,Wunderground v.1.15,2013-02-03 18:15:00,
2013-02-03 13:20:00,22.3,8.6,29.81,SSE,153,5.0,8.0,55,0.00,,,0.00,Wunderground v.1.15,2013-02-03 18:20:00,
2013-02-03 13:25:00,22.5,9.5,29.80,SE,139,6.0,8.0,57,0.00,,,0.00,Wunderground v.1.15,2013-02-03 18:25:00,
2013-02-03 13:30:00,22.4,9.4,29.80,SSE,148,3.0,4.0,57,0.00,,,0.00,Wunderground v.1.15,2013-02-03 18:30:00,
2013-02-03 13:35:00,21.9,9.0,29.80,East,92,3.0,7.0,57,0.00,,,0.00,Wunderground v.1.15,2013-02-03 18:35:00,
2013-02-03 13:40:00,20.8,8.7,29.79,ENE,70,2.0,4.0,59,0.00,,,0.00,Wunderground v.1.15,2013-02-03 18:40:00,
2013-02-03 13:45:00,20.6,8.9,29.79,SSW,204,2.0,4.0,60,0.00,,,0.00,Wunderground v.1.15,2013-02-03 18:45:00,
2013-02-03 13:50:00,21.4,9.7,29.79,WNW,288,0.0,2.0,60,0.00,,,0.00,Wunderground v.1.15,2013-02-03 18:50:00,
2013-02-03 13:55:00,22.2,9.7,29.78,East,91,2.0,2.0,58,0.00,,,0.00,Wunderground v.1.15,2013-02-03 18:55:00,
2013-02-03 14:00:00,23.4,11.2,29.78,East,91,0.0,0.0,59,0.00,,,0.00,Wunderground v.1.15,2013-02-03 19:00:00,
2013-02-03 14:05:00,23.8,10.8,29.78,ESE,119,0.0,7.0,57,0.00,,,0.00,Wunderground v.1.15,2013-02-03 19:05:00,
2013-02-03 14:10:00,24.5,11.0,29.78,SE,131,0.0,1.0,56,0.00,,,0.00,Wunderground v.1.15,2013-02-03 19:10:00,
2013-02-03 14:15:00,23.6,8.9,29.77,SE,129,3.0,11.0,53,0.00,,,0.00,Wunderground v.1.15,2013-02-03 19:15:00,
2013-02-03 14:20:00,23.1,9.3,29.77,SE,140,3.0,6.0,55,0.00,,,0.00,Wunderground v.1.15,2013-02-03 19:20:00,
2013-02-03 14:25:00,23.6,9.8,29.77,South,177,1.0,6.0,55,0.00,,,0.00,Wunderground v.1.15,2013-02-03 19:25:00,
2013-02-03 14:30:00,24.2,9.5,29.77,SSE,155,1.0,5.0,53,0.00,,,0.00,Wunderground v.1.15,2013-02-03 19:30:00,
2013-02-03 14:35:00,24.4,9.3,29.77,WSW,250,0.0,5.0,52,0.00,,,0.00,Wunderground v.1.15,2013-02-03 19:35:00,
2013-02-03 14:40:00,24.0,9.3,29.77,WNW,293,3.0,5.0,53,0.00,,,0.00,Wunderground v.1.15,2013-02-03 19:40:00,
2013-02-03 14:45:00,24.0,9.3,29.77,WNW,288,3.0,5.0,53,0.00,,,0.00,Wunderground v.1.15,2013-02-03 19:45:00,
2013-02-03 14:50:00,23.9,9.6,29.77,NNE,30,0.0,2.0,54,0.00,,,0.00,Wunderground v.1.15,2013-02-03 19:50:00,
2013-02-03 14:55:00,23.5,8.9,29.77,ENE,60,1.0,3.0,53,0.00,,,0.00,Wunderground v.1.15,2013-02-03 19:55:00,
2013-02-03 15:00:00,22.7,8.9,29.77,ENE,60,0.0,1.0,55,0.00,,,0.00,Wunderground v.1.15,2013-02-03 20:00:00,
2013-02-03 15:05:00,22.2,8.5,29.77,South,177,2.0,6.0,55,0.00,,,0.00,Wunderground v.1.15,2013-02-03 20:05:00,
2013-02-03 15:10:00,21.9,8.6,29.77,South,190,1.0,2.0,56,0.00,,,0.00,Wunderground v.1.15,2013-02-03 20:10:00,
2013-02-03 15:15:00,21.6,8.7,29.77,WSW,238,0.0,4.0,57,0.00,,,0.00,Wunderground v.1.15,2013-02-03 20:15:00,
2013-02-03 15:21:00,21.6,9.1,29.77,WSW,238,0.0,1.0,58,0.00,,,0.00,Wunderground v.1.15,2013-02-03 20:21:00,
2013-02-03 15:26:00,21.3,8.4,29.77,SW,226,1.0,3.0,57,0.00,,,0.00,Wunderground v.1.15,2013-02-03 20:26:00,
2013-02-03 15:31:00,21.1,8.6,29.77,SE,143,0.0,1.0,58,0.00,,,0.00,Wunderground v.1.15,2013-02-03 20:31:00,
2013-02-03 15:36:00,20.8,8.7,29.77,WSW,254,0.0,1.0,59,0.00,,,0.00,Wunderground v.1.15,2013-02-03 20:36:00,
2013-02-03 15:41:00,20.6,8.5,29.76,WSW,254,0.0,0.0,59,0.00,,,0.00,Wunderground v.1.15,2013-02-03 20:41:00,
2013-02-03 15:46:00,20.5,8.8,29.76,WSW,254,0.0,1.0,60,0.00,,,0.00,Wunderground v.1.15,2013-02-03 20:46:00,
2013-02-03 15:51:00,20.5,9.2,29.76,WSW,254,0.0,0.0,61,0.00,,,0.00,Wunderground v.1.15,2013-02-03 20:51:00,
2013-02-03 15:56:00,20.4,9.1,29.76,West,272,0.0,0.0,61,0.00,,,0.00,Wunderground v.1.15,2013-02-03 20:56:00,
2013-02-03 16:01:00,20.4,9.1,29.76,SW,225,0.0,0.0,61,0.00,,,0.00,Wunderground v.1.15,2013-02-03 21:01:00,
2013-02-03 16:06:00,20.5,9.9,29.76,SW,225,0.0,0.0,63,0.00,,,0.00,Wunderground v.1.15,2013-02-03 21:06:00,
2013-02-03 16:11:00,20.7,9.7,29.76,SW,225,0.0,0.0,62,0.00,,,0.00,Wunderground v.1.15,2013-02-03 21:11:00,
2013-02-03 16:16:00,20.7,8.6,29.76,South,187,1.0,2.0,59,0.00,,,0.00,Wunderground v.1.15,2013-02-03 21:16:00,
2013-02-03 16:21:00,20.6,8.5,29.76,SSW,195,1.0,1.0,59,0.00,,,0.00,Wunderground v.1.15,2013-02-03 21:21:00,
2013-02-03 16:26:00,20.6,8.5,29.75,WSW,252,0.0,2.0,59,0.00,,,0.00,Wunderground v.1.15,2013-02-03 21:26:00,
2013-02-03 16:31:00,20.5,8.4,29.75,WSW,239,0.0,2.0,59,0.00,,,0.00,Wunderground v.1.15,2013-02-03 21:31:00,
2013-02-03 16:36:00,20.4,9.1,29.76,WSW,249,3.0,4.0,61,0.00,,,0.00,Wunderground v.1.15,2013-02-03 21:36:00,
2013-02-03 16:41:00,20.1,9.2,29.76,WNW,298,1.0,1.0,62,0.00,,,0.00,Wunderground v.1.15,2013-02-03 21:41:00,
2013-02-03 16:46:00,20.0,9.4,29.76,NW,326,2.0,2.0,63,0.00,,,0.00,Wunderground v.1.15,2013-02-03 21:46:00,
2013-02-03 16:51:00,19.8,9.2,29.76,West,281,1.0,1.0,63,0.00,,,0.00,Wunderground v.1.15,2013-02-03 21:51:00,
2013-02-03 16:56:00,19.6,9.4,29.76,NW,311,0.0,2.0,64,0.00,,,0.00,Wunderground v.1.15,2013-02-03 21:56:00,
2013-02-03 17:01:00,19.4,9.5,29.75,NW,311,0.0,1.0,65,0.00,,,0.00,Wunderground v.1.15,2013-02-03 22:01:00,
2013-02-03 17:06:00,19.3,9.4,29.76,NW,310,1.0,1.0,65,0.00,,,0.00,Wunderground v.1.15,2013-02-03 22:06:00,
2013-02-03 17:11:00,19.2,9.4,29.75,NNW,329,1.0,3.0,65,0.00,,,0.00,Wunderground v.1.15,2013-02-03 22:11:00,
2013-02-03 17:16:00,19.2,9.4,29.75,NW,321,3.0,3.0,65,0.00,,,0.00,Wunderground v.1.15,2013-02-03 22:16:00,
2013-02-03 17:21:00,19.1,9.3,29.75,NW,311,0.0,2.0,65,0.00,,,0.00,Wunderground v.1.15,2013-02-03 22:21:00,
2013-02-03 17:26:00,19.0,9.5,29.75,WNW,301,0.0,2.0,66,0.00,,,0.00,Wunderground v.1.15,2013-02-03 22:26:00,
2013-02-03 17:31:00,18.9,9.4,29.75,North,9,0.0,0.0,66,0.00,,,0.00,Wunderground v.1.15,2013-02-03 22:31:00,
2013-02-03 17:36:00,18.9,9.4,29.75,WNW,295,1.0,4.0,66,0.00,,,0.00,Wunderground v.1.15,2013-02-03 22:36:00,
2013-02-03 17:41:00,18.7,9.6,29.75,WNW,299,0.0,1.0,67,0.00,,,0.00,Wunderground v.1.15,2013-02-03 22:41:00,
2013-02-03 17:46:00,18.6,9.5,29.75,West,277,1.0,3.0,67,0.00,,,0.00,Wunderground v.1.15,2013-02-03 22:46:00,
2013-02-03 17:51:00,18.5,9.7,29.75,West,277,0.0,1.0,68,0.00,,,0.00,Wunderground v.1.15,2013-02-03 22:51:00,
2013-02-03 17:56:00,18.3,9.5,29.75,WNW,285,0.0,1.0,68,0.00,,,0.00,Wunderground v.1.15,2013-02-03 22:56:00,
2013-02-03 18:01:00,18.2,9.7,29.75,NW,317,1.0,1.0,69,0.00,,,0.00,Wunderground v.1.15,2013-02-03 23:01:00,
2013-02-03 18:06:00,18.3,9.5,29.75,WNW,297,2.0,3.0,68,0.00,,,0.00,Wunderground v.1.15,2013-02-03 23:06:00,
2013-02-03 18:11:00,18.3,9.8,29.75,WNW,299,1.0,1.0,69,0.00,,,0.00,Wunderground v.1.15,2013-02-03 23:11:00,
2013-02-03 18:16:00,18.2,9.7,29.75,WNW,284,0.0,2.0,69,0.00,,,0.00,Wunderground v.1.15,2013-02-03 23:16:00,
2013-02-03 18:21:00,18.1,9.6,29.75,WNW,284,0.0,0.0,69,0.00,,,0.00,Wunderground v.1.15,2013-02-03 23:21:00,
2013-02-03 18:26:00,18.0,9.9,29.75,WNW,285,0.0,0.0,70,0.00,,,0.00,Wunderground v.1.15,2013-02-03 23:26:00,
2013-02-03 18:32:00,18.0,9.9,29.75,NW,311,0.0,2.0,70,0.00,,,0.00,Wunderground v.1.15,2013-02-03 23:32:00,
2013-02-03 18:37:00,18.0,9.9,29.75,NW,311,0.0,2.0,70,0.00,,,0.00,Wunderground v.1.15,2013-02-03 23:37:00,
2013-02-03 18:42:00,17.9,9.8,29.75,WNW,298,1.0,3.0,70,0.00,,,0.00,Wunderground v.1.15,2013-02-03 23:42:00,
2013-02-03 18:47:00,17.9,9.8,29.74,WNW,283,0.0,3.0,70,0.00,,,0.00,Wunderground v.1.15,2013-02-03 23:47:00,
2013-02-03 18:52:00,17.8,9.7,29.74,WNW,302,0.0,2.0,70,0.00,,,0.00,Wunderground v.1.15,2013-02-03 23:52:00,
2013-02-03 18:57:00,17.7,9.9,29.74,WNW,303,0.0,2.0,71,0.00,,,0.00,Wunderground v.1.15,2013-02-03 23:57:00,
2013-02-03 19:02:00,17.5,9.7,29.74,NW,309,0.0,0.0,71,0.00,,,0.00,Wunderground v.1.15,2013-02-04 00:02:00,
2013-02-03 19:07:00,17.2,9.4,29.74,NW,309,0.0,0.0,71,0.00,,,0.00,Wunderground v.1.15,2013-02-04 00:07:00,
2013-02-03 19:12:00,17.0,9.5,29.74,WNW,298,0.0,0.0,72,0.00,,,0.00,Wunderground v.1.15,2013-02-04 00:12:00,
2013-02-03 19:17:00,16.9,9.4,29.74,West,271,0.0,0.0,72,0.00,,,0.00,Wunderground v.1.15,2013-02-04 00:17:00,
2013-02-03 19:22:00,16.7,9.2,29.74,WNW,286,0.0,0.0,72,0.00,,,0.00,Wunderground v.1.15,2013-02-04 00:22:00,
2013-02-03 19:27:00,16.5,9.0,29.74,WNW,286,0.0,0.0,72,0.00,,,0.00,Wunderground v.1.15,2013-02-04 00:27:00,
2013-02-03 19:32:00,16.2,9.1,29.74,WNW,286,0.0,0.0,73,0.00,,,0.00,Wunderground v.1.15,2013-02-04 00:32:00,
2013-02-03 19:37:00,15.8,9.0,29.75,WNW,287,0.0,0.0,74,0.00,,,0.00,Wunderground v.1.15,2013-02-04 00:37:00,
2013-02-03 19:42:00,15.5,9.0,29.75,WNW,286,0.0,0.0,75,0.00,,,0.00,Wunderground v.1.15,2013-02-04 00:42:00,
2013-02-03 19:47:00,15.2,9.0,29.75,WNW,286,0.0,0.0,76,0.00,,,0.00,Wunderground v.1.15,2013-02-04 00:47:00,
2013-02-03 19:52:00,14.9,9.0,29.74,WNW,286,0.0,0.0,77,0.00,,,0.00,Wunderground v.1.15,2013-02-04 00:52:00,
2013-02-03 19:57:00,14.7,9.1,29.74,WNW,286,0.0,0.0,78,0.00,,,0.00,Wunderground v.1.15,2013-02-04 00:57:00,
2013-02-03 20:02:00,14.5,9.2,29.74,WNW,287,0.0,0.0,79,0.00,,,0.00,Wunderground v.1.15,2013-02-04 01:02:00,
2013-02-03 20:07:00,14.3,9.0,29.75,WNW,286,0.0,0.0,79,0.00,,,0.00,Wunderground v.1.15,2013-02-04 01:07:00,
2013-02-03 20:12:00,14.0,8.7,29.75,WNW,286,0.0,0.0,79,0.00,,,0.00,Wunderground v.1.15,2013-02-04 01:12:00,
2013-02-03 20:17:00,14.0,9.0,29.75,WNW,287,0.0,0.0,80,0.00,,,0.00,Wunderground v.1.15,2013-02-04 01:17:00,
2013-02-03 20:22:00,14.0,9.2,29.75,WNW,287,0.0,0.0,81,0.00,,,0.00,Wunderground v.1.15,2013-02-04 01:22:00,
2013-02-03 20:27:00,14.1,9.3,29.75,WNW,287,0.0,0.0,81,0.00,,,0.00,Wunderground v.1.15,2013-02-04 01:27:00,
2013-02-03 20:32:00,14.0,9.2,29.75,WNW,287,0.0,0.0,81,0.00,,,0.00,Wunderground v.1.15,2013-02-04 01:32:00,
2013-02-03 20:37:00,14.0,9.2,29.75,WNW,287,0.0,0.0,81,0.00,,,0.00,Wunderground v.1.15,2013-02-04 01:37:00,
2013-02-03 20:42:00,14.0,9.2,29.74,WNW,287,0.0,0.0,81,0.00,,,0.00,Wunderground v.1.15,2013-02-04 01:42:00,
2013-02-03 20:47:00,13.9,9.1,29.75,WNW,287,0.0,0.0,81,0.00,,,0.00,Wunderground v.1.15,2013-02-04 01:47:00,
2013-02-03 20:52:00,13.7,9.2,29.74,WNW,286,0.0,0.0,82,0.00,,,0.00,Wunderground v.1.15,2013-02-04 01:52:00,
2013-02-03 20:57:00,13.6,9.1,29.74,WNW,286,0.0,0.0,82,0.00,,,0.00,Wunderground v.1.15,2013-02-04 01:57:00,
2013-02-03 21:03:00,13.4,8.9,29.74,WNW,286,0.0,0.0,82,0.00,,,0.00,Wunderground v.1.15,2013-02-04 02:03:00,
2013-02-03 21:08:00,13.2,8.7,29.74,WNW,287,0.0,0.0,82,0.00,,,0.00,Wunderground v.1.15,2013-02-04 02:08:00,
2013-02-03 21:13:00,13.0,8.8,29.74,WNW,287,0.0,0.0,83,0.00,,,0.00,Wunderground v.1.15,2013-02-04 02:13:00,
2013-02-03 21:18:00,13.1,9.2,29.74,WNW,287,0.0,0.0,84,0.00,,,0.00,Wunderground v.1.15,2013-02-04 02:18:00,
2013-02-03 21:23:00,13.0,9.1,29.74,WNW,286,0.0,0.0,84,0.00,,,0.00,Wunderground v.1.15,2013-02-04 02:23:00,
2013-02-03 21:28:00,13.0,9.1,29.74,WNW,287,0.0,0.0,84,0.00,,,0.00,Wunderground v.1.15,2013-02-04 02:28:00,
2013-02-03 21:33:00,12.9,9.0,29.74,WNW,287,0.0,0.0,84,0.00,,,0.00,Wunderground v.1.15,2013-02-04 02:33:00,
2013-02-03 21:38:00,12.9,9.2,29.74,WNW,286,0.0,0.0,85,0.00,,,0.00,Wunderground v.1.15,2013-02-04 02:38:00,
2013-02-03 21:43:00,12.9,9.0,29.73,WNW,287,0.0,0.0,84,0.00,,,0.00,Wunderground v.1.15,2013-02-04 02:43:00,
2013-02-03 21:48:00,12.8,8.9,29.73,WNW,287,0.0,0.0,84,0.00,,,0.00,Wunderground v.1.15,2013-02-04 02:48:00,
2013-02-03 21:53:00,12.7,9.0,29.73,WNW,286,0.0,0.0,85,0.00,,,0.00,Wunderground v.1.15,2013-02-04 02:53:00,
2013-02-03 21:58:00,12.8,9.1,29.73,WNW,287,0.0,0.0,85,0.00,,,0.00,Wunderground v.1.15,2013-02-04 02:58:00,
2013-02-03 22:03:00,12.9,9.2,29.73,WNW,287,0.0,0.0,85,0.00,,,0.00,Wunderground v.1.15,2013-02-04 03:03:00,
2013-02-03 22:08:00,12.9,9.2,29.73,WNW,287,0.0,0.0,85,0.00,,,0.00,Wunderground v.1.15,2013-02-04 03:08:00,
2013-02-03 22:13:00,13.0,9.3,29.72,WNW,287,0.0,0.0,85,0.00,,,0.00,Wunderground v.1.15,2013-02-04 03:13:00,
2013-02-03 22:18:00,12.9,9.2,29.72,WNW,287,0.0,0.0,85,0.00,,,0.00,Wunderground v.1.15,2013-02-04 03:18:00,
2013-02-03 22:23:00,13.0,9.3,29.72,WNW,287,0.0,0.0,85,0.00,,,0.00,Wunderground v.1.15,2013-02-04 03:23:00,
2013-02-03 22:29:00,13.0,9.3,29.72,WNW,287,0.0,0.0,85,0.00,,,0.00,Wunderground v.1.15,2013-02-04 03:29:00,
2013-02-03 22:34:00,13.0,9.3,29.72,WNW,286,0.0,0.0,85,0.00,,,0.00,Wunderground v.1.15,2013-02-04 03:34:00,
2013-02-03 22:39:00,13.0,9.6,29.72,WNW,286,0.0,0.0,86,0.00,,,0.00,Wunderground v.1.15,2013-02-04 03:39:00,
2013-02-03 22:44:00,13.0,9.6,29.72,WNW,286,0.0,0.0,86,0.00,,,0.00,Wunderground v.1.15,2013-02-04 03:44:00,
2013-02-03 22:49:00,13.0,9.6,29.72,WNW,286,0.0,0.0,86,0.00,,,0.00,Wunderground v.1.15,2013-02-04 03:49:00,
2013-02-03 22:54:00,12.8,9.4,29.72,WNW,287,0.0,0.0,86,0.00,,,0.00,Wunderground v.1.15,2013-02-04 03:54:00,
2013-02-03 22:59:00,12.7,9.3,29.72,WNW,287,0.0,0.0,86,0.00,,,0.00,Wunderground v.1.15,2013-02-04 03:59:00,
2013-02-03 23:04:00,12.5,9.1,29.72,WNW,287,0.0,0.0,86,0.00,,,0.00,Wunderground v.1.15,2013-02-04 04:04:00,
2013-02-03 23:09:00,12.4,9.0,29.72,WNW,287,0.0,0.0,86,0.00,,,0.00,Wunderground v.1.15,2013-02-04 04:09:00,
2013-02-03 23:14:00,12.3,9.2,29.72,WNW,287,0.0,0.0,87,0.00,,,0.00,Wunderground v.1.15,2013-02-04 04:14:00,
2013-02-03 23:19:00,12.2,9.1,29.71,WNW,286,0.0,0.0,87,0.00,,,0.00,Wunderground v.1.15,2013-02-04 04:19:00,
2013-02-03 23:24:00,12.1,9.0,29.71,WNW,287,0.0,0.0,87,0.00,,,0.00,Wunderground v.1.15,2013-02-04 04:24:00,
2013-02-03 23:29:00,12.1,8.7,29.71,WNW,282,0.0,0.0,86,0.00,,,0.00,Wunderground v.1.15,2013-02-04 04:29:00,
2013-02-03 23:35:00,12.6,8.9,29.71,West,264,0.0,2.0,85,0.00,,,0.00,Wunderground v.1.15,2013-02-04 04:35:00,
2013-02-03 23:40:00,13.1,9.2,29.71,WNW,292,1.0,2.0,84,0.00,,,0.00,Wunderground v.1.15,2013-02-04 04:40:00,
2013-02-03 23:45:00,13.4,9.5,29.71,NW,322,1.0,2.0,84,0.00,,,0.00,Wunderground v.1.15,2013-02-04 04:45:00,
2013-02-03 23:50:00,13.8,9.6,29.71,NW,307,0.0,1.0,83,0.00,,,0.00,Wunderground v.1.15,2013-02-04 04:50:00,
2013-02-03 23:55:00,13.9,9.7,29.71,NW,311,2.0,2.0,83,0.00,,,0.00,Wunderground v.1.15,2013-02-04 04:55:00,
2013-02-03 23:59:00,14.0,9.8,29.71,NW,304,0.0,1.0,83,0.00,,,0.00,Wunderground v.1.15,2013-02-04 04:59:00,